EW2826 Weather Reports


time (UTC)temp
F
wind
direction
speed
knots
gust
knots
rain 1hr
in
rain 24hr
in
rain mn
in
humidity
%
barometer
mb
20260505024003 68 64 4.3 7.0 0.00 0.00 0.00 50 1027.3
20260505023003 67 10 2.6 5.2 0.00 0.00 0.00 51 1027.3
20260505022002 68 21 2.6 5.2 0.00 0.00 0.00 50 1027.3
20260505021002 67 17 1.7 2.6 0.00 0.00 0.00 51 1027.4
20260505020002 66 25 1.7 2.6 0.00 0.00 0.00 53 1027.4
20260505015002 65 72 1.7 2.6 0.00 0.00 0.00 55 1027.4
20260505014002 65 59 1.7 2.6 0.00 0.00 0.00 55 1027.4
20260505013023 65 43 1.7 2.6 0.00 0.00 0.00 55 1027.5
20260505012003 64 88 1.7 5.2 0.00 0.00 0.00 57 1027.5
20260505011024 64 98 1.7 5.2 0.00 0.00 0.00 58 1027.5
20260505010003 63 63 2.6 4.3 0.00 0.00 0.00 59 1027.6
20260505005002 62 82 1.7 4.3 0.00 0.00 0.00 60 1027.7
20260505004002 61 31 1.7 2.6 0.00 0.00 0.00 61 1027.6
20260505003002 60 56 2.6 6.1 0.00 0.00 0.00 62 1027.5
20260505002002 59 82 1.7 4.3 0.00 0.00 0.00 65 1027.4
20260505001002 58 72 1.7 4.3 0.00 0.00 0.00 67 1027.1
20260505000024 57 79 3.5 5.2 0.00 0.00 0.00 68 1026.9
20260504235002 57 83 4.3 7.0 0.00 0.00 0.00 69 1026.9
20260504234002 56 65 2.6 4.3 0.00 0.00 0.00 71 1026.8
20260504233001 55 35 2.6 7.0 0.00 0.00 0.00 73 1026.7
20260504232002 54 102 3.5 10.4 0.00 0.00 0.00 75 1026.6
20260504231002 55 6 2.6 5.2 0.00 0.00 0.00 74 1026.6
20260504230002 55 71 0.9 2.6 0.00 0.00 0.00 71 1026.5
20260504225002 56 80 2.6 7.0 0.00 0.00 0.00 71 1026.3
20260504224002 56 5 2.6 7.0 0.00 0.00 0.00 71 1026.0
20260504223002 56 48 1.7 4.3 0.00 0.00 0.00 70 1026.0
20260504222002 56 103 2.6 6.1 0.00 0.00 0.00 70 1025.9
20260504220002 56 66 1.7 5.2 0.00 0.00 0.00 71 1025.8
20260504215002 56 23 1.7 5.2 0.00 0.00 0.00 70 1025.7
20260504214002 57 79 2.6 4.3 0.00 0.00 0.00 70 1025.6
20260504213002 57 16 1.7 5.2 0.00 0.00 0.00 70 1025.7
20260504212002 57 68 3.5 7.8 0.00 0.00 0.00 70 1025.8
20260504211002 57 88 4.3 7.8 0.00 0.00 0.00 70 1025.9
20260504210003 57 76 2.6 5.2 0.00 0.00 0.00 70 1025.9
20260504205002 57 67 2.6 6.1 0.00 0.00 0.00 70 1025.9
20260504204002 57 88 1.7 4.3 0.00 0.00 0.00 69 1026.0
20260504203002 57 1 1.7 5.2 0.00 0.00 0.00 70 1025.9
20260504202003 57 41 4.3 7.8 0.00 0.00 0.00 69 1025.8
20260504201002 57 35 2.6 6.1 0.00 0.00 0.00 69 1025.8
20260504200002 57 91 2.6 6.1 0.00 0.00 0.00 69 1025.9
20260504194002 58 17 1.7 2.6 0.00 0.00 0.00 69 1025.9
20260504193003 58 69 2.6 4.3 0.00 0.00 0.00 68 1025.9
20260504192024 58 20 2.6 5.2 0.00 0.00 0.00 68 1025.9
20260504191002 58 66 2.6 5.2 0.00 0.00 0.00 68 1026.0
20260504190003 58 73 4.3 7.0 0.00 0.00 0.00 68 1026.1
20260504185002 59 100 0.9 2.6 0.00 0.00 0.00 67 1026.2
20260504184002 59 24 2.6 4.3 0.00 0.00 0.00 66 1026.2
20260504183002 59 33 2.6 4.3 0.00 0.00 0.00 66 1026.1
20260504181002 59 102 1.7 4.3 0.00 0.00 0.00 67 1026.1
20260504180002 58 79 2.6 4.3 0.00 0.00 0.00 68 1026.1
20260504175023 58 72 1.7 6.1 0.00 0.00 0.00 67 1026.3
20260504174003 58 95 1.7 5.2 0.00 0.00 0.00 67 1026.3
20260504173002 59 162 0.9 2.6 0.00 0.00 0.00 67 1026.2
20260504172002 59 232 0.9 1.7 0.00 0.00 0.00 65 1026.2
20260504171003 59 129 3.5 7.0 0.00 0.00 0.00 64 1026.3
20260504151003 59 128 1.7 5.2 0.00 0.00 0.00 65 1026.7
20260504141002 57 97 3.5 5.2 0.00 0.00 0.00 71 1026.9
20260504082002 71 179 0.9 2.6 0.00 0.00 0.00 52 1025.4
20260504081007 71 138 1.7 1.7 0.00 0.00 0.00 46 1025.5
20260504050023 70 168 1.7 2.6 0.00 0.00 0.00 49 1026.6
20260504045002 69 177 0.9 1.7 0.00 0.00 0.00 49 1026.7
20260504044003 69 132 2.6 5.2 0.00 0.00 0.00 49 1026.8
20260504043002 69 120 1.7 2.6 0.00 0.00 0.00 51 1027.0
20260504042003 68 20 2.6 6.1 0.00 0.00 0.00 51 1027.1
20260504041002 68 41 0.9 5.2 0.00 0.00 0.00 53 1027.3
20260504040002 68 86 2.6 6.1 0.00 0.00 0.00 52 1027.6
20260504035002 67 70 3.5 7.0 0.00 0.00 0.00 52 1027.8
20260504034002 67 101 2.6 6.1 0.00 0.00 0.00 53 1027.9
20260504033002 67 82 1.7 4.3 0.00 0.00 0.00 55 1028.1
20260504032007 66 108 3.5 7.0 0.00 0.00 0.00 55 1028.2
20260504031002 66 75 3.5 5.2 0.00 0.00 0.00 55 1028.2
20260504030002 65 85 4.3 7.8 0.00 0.00 0.00 55 1028.4
20260504025002 65 33 5.2 11.3 0.00 0.00 0.00 56 1028.5